Location: De Har
(53.3413°N, 6.6858°E)
Time: 08:38:47
(UTC+00:00)

Cosmos 2237 Rocket - Pass Details

Date: 22 April 2026
Orbit: 833 x 850 km, 71.0° (Epoch: 15 May)

Event Time Altitude Azimuth Distance (km) Brightness Sun altitude
Rises 02:56:10 0° 328° (NNW) 3,428 5.5 -11.4°
Reaches altitude 10° 02:58:45 10° 335° (NNW) 2,489 4.8 -11.1°
Maximum altitude 03:04:14 45° 48° (NE) 1,142 3.5 -10.4°
Drops below altitude 10° 03:09:40 10° 121° (ESE) 2,470 4.9 -9.8°
Sets 03:12:13 0° 127° (SE) 3,399 5.6 -9.5°
